Location: Bothwell
(41.7170°N, 112.2589°W)
Time: 14:23:49
(UTC+00:00)

Vanguard 2 - Pass Details

Date: 18 May 2026
Orbit: 553 x 2894 km, 32.9° (Epoch: 8 June)

Event Time Altitude Azimuth Distance (km) Brightness Sun altitude
Rises 08:38:20 0° 238° (WSW) 6,106 - -26.4°
Reaches altitude 10° 08:42:10 10° 234° (SW) 5,310 - -26.2°
Exits shadow 08:49:30 33° 219° (SW) 4,004 10.6 -25.7°
Maximum altitude 08:58:11 55° 163° (SSE) 3,299 10.3 -25.0°
Drops below altitude 10° 09:14:03 10° 92° (E) 5,281 12.1 -23.7°
Sets 09:17:50 0° 88° (E) 6,073 12.5 -23.4°
